Year,Month,Day,Hour,Minute,Value (Times are PST for temperature in C)
2009,09,22,00,00,9.20
2009,09,22,00,01,9.20
2009,09,22,00,02,9.20
2009,09,22,00,03,9.20
2009,09,22,00,04,9.20
2009,09,22,00,05,9.20
2009,09,22,00,06,9.10
2009,09,22,00,07,9.10
2009,09,22,00,08,9.10
2009,09,22,00,09,9.10
2009,09,22,00,10,9.10
2009,09,22,00,11,9.10
2009,09,22,00,12,9.10
2009,09,22,00,13,9.00
2009,09,22,00,14,9.00
2009,09,22,00,15,9.00
2009,09,22,00,16,9.00
2009,09,22,00,17,9.00
2009,09,22,00,18,9.00
2009,09,22,00,19,8.90
2009,09,22,00,20,8.90
2009,09,22,00,21,8.90
2009,09,22,00,22,8.90
2009,09,22,00,23,8.90
2009,09,22,00,24,8.90
2009,09,22,00,25,8.90
2009,09,22,00,26,8.90
2009,09,22,00,27,8.90
2009,09,22,00,28,8.80
2009,09,22,00,29,8.80
2009,09,22,00,30,8.80
2009,09,22,00,31,8.80
2009,09,22,00,32,8.80
2009,09,22,00,33,8.80
2009,09,22,00,34,8.80
2009,09,22,00,35,8.80
2009,09,22,00,36,8.80
2009,09,22,00,37,8.80
2009,09,22,00,38,8.80
2009,09,22,00,39,8.70
2009,09,22,00,40,8.70
2009,09,22,00,41,8.70
2009,09,22,00,42,8.70
2009,09,22,00,43,8.70
2009,09,22,00,44,8.70
2009,09,22,00,45,8.70
2009,09,22,00,46,8.70
2009,09,22,00,47,8.70
2009,09,22,00,48,8.70
2009,09,22,00,49,8.70
2009,09,22,00,50,8.70
2009,09,22,00,51,8.70
2009,09,22,00,52,8.70
2009,09,22,00,53,8.60
2009,09,22,00,54,8.60
2009,09,22,00,55,8.60
2009,09,22,00,56,8.60
2009,09,22,00,57,8.60
2009,09,22,00,58,8.60
2009,09,22,00,59,8.60
2009,09,22,01,00,8.60
2009,09,22,01,01,8.60
2009,09,22,01,02,8.60
2009,09,22,01,03,8.60
2009,09,22,01,04,8.50
2009,09,22,01,05,8.50
2009,09,22,01,06,8.50
2009,09,22,01,07,8.50
2009,09,22,01,08,8.50
2009,09,22,01,09,8.50
2009,09,22,01,10,8.40
2009,09,22,01,11,8.40
2009,09,22,01,12,8.40
2009,09,22,01,13,8.40
2009,09,22,01,14,8.40
2009,09,22,01,15,8.40
2009,09,22,01,16,8.40
2009,09,22,01,17,8.40
2009,09,22,01,18,8.40
2009,09,22,01,19,8.40
2009,09,22,01,20,8.30
2009,09,22,01,21,8.30
2009,09,22,01,22,8.30
2009,09,22,01,23,8.30
2009,09,22,01,24,8.30
2009,09,22,01,25,8.30
2009,09,22,01,26,8.30
2009,09,22,01,27,8.30
2009,09,22,01,28,8.30
2009,09,22,01,29,8.30
2009,09,22,01,30,8.30
2009,09,22,01,31,8.30
2009,09,22,01,32,8.20
2009,09,22,01,33,8.20
2009,09,22,01,34,8.20
2009,09,22,01,35,8.20
2009,09,22,01,36,8.20
2009,09,22,01,37,8.20
2009,09,22,01,38,8.20
2009,09,22,01,39,8.10
2009,09,22,01,40,8.10
2009,09,22,01,41,8.10
2009,09,22,01,42,8.10
2009,09,22,01,43,8.10
2009,09,22,01,44,8.10
2009,09,22,01,45,8.00
2009,09,22,01,46,8.00
2009,09,22,01,47,8.00
2009,09,22,01,48,8.00
2009,09,22,01,49,8.00
2009,09,22,01,50,8.00
2009,09,22,01,51,7.90
2009,09,22,01,52,7.90
2009,09,22,01,53,7.90
2009,09,22,01,54,7.90
2009,09,22,01,55,7.90
2009,09,22,01,56,7.90
2009,09,22,01,57,7.90
2009,09,22,01,58,7.90
2009,09,22,01,59,7.90
2009,09,22,02,00,7.90
2009,09,22,02,01,7.90
2009,09,22,02,02,7.90
2009,09,22,02,03,7.90
2009,09,22,02,04,7.90
2009,09,22,02,05,7.90
2009,09,22,02,06,7.90
2009,09,22,02,07,7.90
2009,09,22,02,08,7.90
2009,09,22,02,09,7.90
2009,09,22,02,10,7.90
2009,09,22,02,11,7.90
2009,09,22,02,12,7.90
2009,09,22,02,13,7.90
2009,09,22,02,14,7.90
2009,09,22,02,15,7.90
2009,09,22,02,16,7.80
2009,09,22,02,17,7.80
2009,09,22,02,18,7.80
2009,09,22,02,19,7.80
2009,09,22,02,20,7.80
2009,09,22,02,21,7.80
2009,09,22,02,22,7.80
2009,09,22,02,23,7.80
2009,09,22,02,24,7.80
2009,09,22,02,25,7.70
2009,09,22,02,26,7.70
2009,09,22,02,27,7.70
2009,09,22,02,28,7.70
2009,09,22,02,29,7.70
2009,09,22,02,30,7.70
2009,09,22,02,31,7.70
2009,09,22,02,32,7.60
2009,09,22,02,33,7.60
2009,09,22,02,34,7.60
2009,09,22,02,35,7.60
2009,09,22,02,36,7.60
2009,09,22,02,37,7.60
2009,09,22,02,38,7.60
2009,09,22,02,39,7.60
2009,09,22,02,40,7.60
2009,09,22,02,41,7.60
2009,09,22,02,42,7.60
2009,09,22,02,43,7.60
2009,09,22,02,44,7.60
2009,09,22,02,45,7.60
2009,09,22,02,46,7.60
2009,09,22,02,47,7.60
2009,09,22,02,48,7.60
2009,09,22,02,49,7.60
2009,09,22,02,50,7.60
2009,09,22,02,51,7.60
2009,09,22,02,52,7.60
2009,09,22,02,53,7.50
2009,09,22,02,54,7.50
2009,09,22,02,55,7.50
2009,09,22,02,56,7.50
2009,09,22,02,57,7.50
2009,09,22,02,58,7.40
2009,09,22,02,59,7.40
2009,09,22,03,00,7.40
2009,09,22,03,01,7.40
2009,09,22,03,02,7.40
2009,09,22,03,03,7.40
2009,09,22,03,04,7.40
2009,09,22,03,05,7.40
2009,09,22,03,06,7.40
2009,09,22,03,07,7.40
2009,09,22,03,08,7.40
2009,09,22,03,09,7.40
2009,09,22,03,10,7.30
2009,09,22,03,11,7.30
2009,09,22,03,12,7.30
2009,09,22,03,13,7.30
2009,09,22,03,14,7.30
2009,09,22,03,15,7.30
2009,09,22,03,16,7.30
2009,09,22,03,17,7.30
2009,09,22,03,18,7.30
2009,09,22,03,19,7.30
2009,09,22,03,20,7.30
2009,09,22,03,21,7.30
2009,09,22,03,22,7.30
2009,09,22,03,23,7.20
2009,09,22,03,24,7.20
2009,09,22,03,25,7.20
2009,09,22,03,26,7.20
2009,09,22,03,27,7.20
2009,09,22,03,28,7.20
2009,09,22,03,29,7.20
2009,09,22,03,30,7.20
2009,09,22,03,31,7.20
2009,09,22,03,32,7.20
2009,09,22,03,33,7.20
2009,09,22,03,34,7.20
2009,09,22,03,35,7.20
2009,09,22,03,36,7.20
2009,09,22,03,37,7.10
2009,09,22,03,38,7.10
2009,09,22,03,39,7.10
2009,09,22,03,40,7.10
2009,09,22,03,41,7.10
2009,09,22,03,42,7.10
2009,09,22,03,43,7.10
2009,09,22,03,44,7.10
2009,09,22,03,45,7.10
2009,09,22,03,46,7.10
2009,09,22,03,47,7.10
2009,09,22,03,48,7.10
2009,09,22,03,49,7.10
2009,09,22,03,50,7.10
2009,09,22,03,51,7.10
2009,09,22,03,52,7.10
2009,09,22,03,53,7.10
2009,09,22,03,54,7.10
2009,09,22,03,55,7.10
2009,09,22,03,56,7.10
2009,09,22,03,57,7.10
2009,09,22,03,58,7.10
2009,09,22,03,59,7.10
2009,09,22,04,00,7.10
2009,09,22,04,01,7.10
2009,09,22,04,02,7.10
2009,09,22,04,03,7.10
2009,09,22,04,05,7.10
2009,09,22,04,06,7.10
2009,09,22,04,07,7.00
2009,09,22,04,08,7.00
2009,09,22,04,09,7.00
2009,09,22,04,10,7.00
2009,09,22,04,11,7.00
2009,09,22,04,12,7.00
2009,09,22,04,13,7.00
2009,09,22,04,14,6.90
2009,09,22,04,15,6.90
2009,09,22,04,16,6.90
2009,09,22,04,17,6.90
2009,09,22,04,18,6.90
2009,09,22,04,19,6.90
2009,09,22,04,20,6.90
2009,09,22,04,21,6.90
2009,09,22,04,22,6.90
2009,09,22,04,23,6.90
2009,09,22,04,24,6.90
2009,09,22,04,25,7.00
2009,09,22,04,26,7.00
2009,09,22,04,27,7.00
2009,09,22,04,28,7.00
2009,09,22,04,29,7.00
2009,09,22,04,30,7.00
2009,09,22,04,31,7.00
2009,09,22,04,32,7.00
2009,09,22,04,33,7.00
2009,09,22,04,34,7.00
2009,09,22,04,35,6.90
2009,09,22,04,36,6.90
2009,09,22,04,37,6.90
2009,09,22,04,38,6.90
2009,09,22,04,39,6.90
2009,09,22,04,40,6.90
2009,09,22,04,41,6.90
2009,09,22,04,42,6.90
2009,09,22,04,43,6.90
2009,09,22,04,44,6.90
2009,09,22,04,45,6.80
2009,09,22,04,46,6.80
2009,09,22,04,47,6.80
2009,09,22,04,48,6.80
2009,09,22,04,49,6.80
2009,09,22,04,50,6.80
2009,09,22,04,51,6.80
2009,09,22,04,52,6.80
2009,09,22,04,53,6.80
2009,09,22,04,54,6.80
2009,09,22,04,55,6.80
2009,09,22,04,56,6.80
2009,09,22,04,57,6.80
2009,09,22,04,58,6.80
2009,09,22,04,59,6.80
2009,09,22,05,00,6.80
2009,09,22,05,01,6.80
2009,09,22,05,02,6.80
2009,09,22,05,03,6.80
2009,09,22,05,04,6.80
2009,09,22,05,05,6.80
2009,09,22,05,06,6.80
2009,09,22,05,07,6.80
2009,09,22,05,08,6.80
2009,09,22,05,09,6.80
2009,09,22,05,10,6.80
2009,09,22,05,11,6.80
2009,09,22,05,12,6.80
2009,09,22,05,13,6.80
2009,09,22,05,14,6.80
2009,09,22,05,15,6.80
2009,09,22,05,16,6.70
2009,09,22,05,17,6.80
2009,09,22,05,18,6.80
2009,09,22,05,19,6.80
2009,09,22,05,20,6.80
2009,09,22,05,21,6.80
2009,09,22,05,22,6.80
2009,09,22,05,23,6.80
2009,09,22,05,24,6.80
2009,09,22,05,25,6.80
2009,09,22,05,26,6.80
2009,09,22,05,27,6.80
2009,09,22,05,28,6.80
2009,09,22,05,29,6.80
2009,09,22,05,30,6.80
2009,09,22,05,31,6.80
2009,09,22,05,32,6.80
2009,09,22,05,33,6.70
2009,09,22,05,34,6.70
2009,09,22,05,35,6.70
2009,09,22,05,36,6.70
2009,09,22,05,37,6.70
2009,09,22,05,38,6.70
2009,09,22,05,39,6.70
2009,09,22,05,40,6.70
2009,09,22,05,41,6.70
2009,09,22,05,42,6.70
2009,09,22,05,43,6.70
2009,09,22,05,44,6.70
2009,09,22,05,45,6.70
2009,09,22,05,46,6.70
2009,09,22,05,47,6.70
2009,09,22,05,48,6.70
2009,09,22,05,49,6.70
2009,09,22,05,50,6.70
2009,09,22,05,51,6.70
2009,09,22,05,52,6.70
2009,09,22,05,53,6.70
2009,09,22,05,54,6.70
2009,09,22,05,55,6.60
2009,09,22,05,56,6.60
2009,09,22,05,57,6.60
2009,09,22,05,58,6.60
2009,09,22,05,59,6.60
2009,09,22,06,00,6.60
2009,09,22,06,01,6.60
2009,09,22,06,02,6.60
2009,09,22,06,03,6.60
2009,09,22,06,04,6.60
2009,09,22,06,05,6.60
2009,09,22,06,06,6.60
2009,09,22,06,07,6.50
2009,09,22,06,08,6.50
2009,09,22,06,09,6.50
2009,09,22,06,10,6.50
2009,09,22,06,11,6.50
2009,09,22,06,12,6.50
2009,09,22,06,13,6.50
2009,09,22,06,14,6.50
2009,09,22,06,15,6.50
2009,09,22,06,16,6.50
2009,09,22,06,17,6.50
2009,09,22,06,18,6.50
2009,09,22,06,19,6.50
2009,09,22,06,20,6.50
2009,09,22,06,21,6.50
2009,09,22,06,22,6.60
2009,09,22,06,23,6.60
2009,09,22,06,24,6.60
2009,09,22,06,25,6.50
2009,09,22,06,26,6.50
2009,09,22,06,27,6.50
2009,09,22,06,28,6.50
2009,09,22,06,29,6.50
2009,09,22,06,30,6.50
2009,09,22,06,31,6.50
2009,09,22,06,32,6.50
2009,09,22,06,33,6.50
2009,09,22,06,34,6.50
2009,09,22,06,35,6.50
2009,09,22,06,36,6.50
2009,09,22,06,37,6.50
2009,09,22,06,38,6.50
2009,09,22,06,39,6.50
2009,09,22,06,40,6.50
2009,09,22,06,41,6.50
2009,09,22,06,42,6.50
2009,09,22,06,43,6.50
2009,09,22,06,44,6.50
2009,09,22,06,45,6.40
2009,09,22,06,46,6.40
2009,09,22,06,47,6.40
2009,09,22,06,48,6.40
2009,09,22,06,49,6.40
2009,09,22,06,50,6.40
2009,09,22,06,51,6.40
2009,09,22,06,52,6.40
2009,09,22,06,53,6.40
2009,09,22,06,54,6.40
2009,09,22,06,55,6.40
2009,09,22,06,56,6.40
2009,09,22,06,57,6.40
2009,09,22,06,58,6.50
2009,09,22,06,59,6.40
2009,09,22,07,00,6.40
2009,09,22,07,01,6.40
2009,09,22,07,02,6.40
2009,09,22,07,03,6.40
2009,09,22,07,04,6.40
2009,09,22,07,05,6.40
2009,09,22,07,06,6.40
2009,09,22,07,07,6.50
2009,09,22,07,08,6.50
2009,09,22,07,09,6.50
2009,09,22,07,10,6.50
2009,09,22,07,11,6.50
2009,09,22,07,12,6.50
2009,09,22,07,13,6.50
2009,09,22,07,14,6.50
2009,09,22,07,15,6.50
2009,09,22,07,16,6.50
2009,09,22,07,17,6.50
2009,09,22,07,18,6.50
2009,09,22,07,19,6.50
2009,09,22,07,20,6.50
2009,09,22,07,21,6.50
2009,09,22,07,22,6.50
2009,09,22,07,23,6.50
2009,09,22,07,24,6.50
2009,09,22,07,25,6.50
2009,09,22,07,26,6.40
2009,09,22,07,27,6.40
2009,09,22,07,28,6.50
2009,09,22,07,29,6.40
2009,09,22,07,30,6.40
2009,09,22,07,31,6.40
2009,09,22,07,32,6.40
2009,09,22,07,33,6.40
2009,09,22,07,34,6.40
2009,09,22,07,35,6.40
2009,09,22,07,36,6.40
2009,09,22,07,37,6.40
2009,09,22,07,38,6.40
2009,09,22,07,39,6.40
2009,09,22,07,40,6.40
2009,09,22,07,41,6.40
2009,09,22,07,42,6.40
2009,09,22,07,43,6.40
2009,09,22,07,44,6.40
2009,09,22,07,45,6.40
2009,09,22,07,46,6.50
2009,09,22,07,47,6.50
2009,09,22,07,48,6.50
2009,09,22,07,49,6.50
2009,09,22,07,50,6.50
2009,09,22,07,51,6.50
2009,09,22,07,52,6.50
2009,09,22,07,53,6.60
2009,09,22,07,54,6.60
2009,09,22,07,55,6.60
2009,09,22,07,56,6.60
2009,09,22,07,57,6.60
2009,09,22,07,58,6.60
2009,09,22,07,59,6.60
2009,09,22,08,00,6.60
2009,09,22,08,01,6.60
2009,09,22,08,02,6.70
2009,09,22,08,03,6.70
2009,09,22,08,04,6.70
2009,09,22,08,05,6.70
2009,09,22,08,06,6.80
2009,09,22,08,07,6.80
2009,09,22,08,08,6.80
2009,09,22,08,09,6.80
2009,09,22,08,10,6.90
2009,09,22,08,11,6.90
2009,09,22,08,12,6.90
2009,09,22,08,13,7.00
2009,09,22,08,14,7.00
2009,09,22,08,15,7.10
2009,09,22,08,16,7.10
2009,09,22,08,17,7.20
2009,09,22,08,18,7.20
2009,09,22,08,19,7.20
2009,09,22,08,20,7.20
2009,09,22,08,21,7.20
2009,09,22,08,22,7.20
2009,09,22,08,23,7.20
2009,09,22,08,24,7.30
2009,09,22,08,25,7.30
2009,09,22,08,26,7.40
2009,09,22,08,27,7.40
2009,09,22,08,28,7.40
2009,09,22,08,29,7.50
2009,09,22,08,30,7.60
2009,09,22,08,31,7.60
2009,09,22,08,32,7.70
2009,09,22,08,33,7.80
2009,09,22,08,34,7.80
2009,09,22,08,35,7.90
2009,09,22,08,36,7.90
2009,09,22,08,37,8.00
2009,09,22,08,38,8.10
2009,09,22,08,39,8.10
2009,09,22,08,40,8.20
2009,09,22,08,41,8.20
2009,09,22,08,42,8.30
2009,09,22,08,43,8.30
2009,09,22,08,44,8.30
2009,09,22,08,45,8.40
2009,09,22,08,46,8.40
2009,09,22,08,47,8.50
2009,09,22,08,48,8.60
2009,09,22,08,49,8.60
2009,09,22,08,50,8.70
2009,09,22,08,51,8.80
2009,09,22,08,52,8.80
2009,09,22,08,53,8.90
2009,09,22,08,54,9.00
2009,09,22,08,55,9.20
2009,09,22,08,56,9.30
2009,09,22,08,57,9.40
2009,09,22,08,58,9.60
2009,09,22,08,59,9.70
2009,09,22,09,00,9.80
2009,09,22,09,01,9.90
2009,09,22,09,02,10.00
2009,09,22,09,03,10.10
2009,09,22,09,04,10.20
2009,09,22,09,05,10.30
2009,09,22,09,06,10.40
2009,09,22,09,07,10.40
2009,09,22,09,08,10.50
2009,09,22,09,09,10.60
2009,09,22,09,10,10.70
2009,09,22,09,11,10.80
2009,09,22,09,12,10.80
2009,09,22,09,13,10.90
2009,09,22,09,14,10.90
2009,09,22,09,15,11.00
2009,09,22,09,16,11.10
2009,09,22,09,17,11.10
2009,09,22,09,18,11.20
2009,09,22,09,19,11.20
2009,09,22,09,20,11.30
2009,09,22,09,21,11.40
2009,09,22,09,22,11.40
2009,09,22,09,23,11.60
2009,09,22,09,24,11.70
2009,09,22,09,25,11.80
2009,09,22,09,26,11.90
2009,09,22,09,27,12.00
2009,09,22,09,28,12.10
2009,09,22,09,29,12.20
2009,09,22,09,30,12.30
2009,09,22,09,31,12.40
2009,09,22,09,32,12.40
2009,09,22,09,33,12.50
2009,09,22,09,34,12.70
2009,09,22,09,35,12.80
2009,09,22,09,36,12.90
2009,09,22,09,37,13.10
2009,09,22,09,38,13.20
2009,09,22,09,39,13.30
2009,09,22,09,40,13.50
2009,09,22,09,41,13.60
2009,09,22,09,42,13.70
2009,09,22,09,43,13.80
2009,09,22,09,44,14.00
2009,09,22,09,45,14.10
2009,09,22,09,46,14.30
2009,09,22,09,47,14.40
2009,09,22,09,48,14.50
2009,09,22,09,49,14.70
2009,09,22,09,50,14.90
2009,09,22,09,51,15.00
2009,09,22,09,52,15.00
2009,09,22,09,53,15.20
2009,09,22,09,54,15.40
2009,09,22,09,55,15.50
2009,09,22,09,56,15.60
2009,09,22,09,57,15.80
2009,09,22,09,58,15.90
2009,09,22,09,59,16.00
2009,09,22,10,00,16.10
2009,09,22,10,01,16.20
2009,09,22,10,02,16.30
2009,09,22,10,03,16.40
2009,09,22,10,04,16.50
2009,09,22,10,05,16.60
2009,09,22,10,06,16.70
2009,09,22,10,07,16.80
2009,09,22,10,08,17.00
2009,09,22,10,09,17.10
2009,09,22,10,10,17.20
2009,09,22,10,11,17.30
2009,09,22,10,12,17.40
2009,09,22,10,13,17.50
2009,09,22,10,14,17.70
2009,09,22,10,15,17.80
2009,09,22,10,16,17.90
2009,09,22,10,17,18.00
2009,09,22,10,18,18.20
2009,09,22,10,19,18.30
2009,09,22,10,20,18.40
2009,09,22,10,21,18.50
2009,09,22,10,22,18.60
2009,09,22,10,23,18.70
2009,09,22,10,24,18.80
2009,09,22,10,25,18.90
2009,09,22,10,26,19.00
2009,09,22,10,27,19.10
2009,09,22,10,28,19.20
2009,09,22,10,29,19.20
2009,09,22,10,30,19.30
2009,09,22,10,31,19.30
2009,09,22,10,32,19.40
2009,09,22,10,33,19.40
2009,09,22,10,34,19.40
2009,09,22,10,35,19.40
2009,09,22,10,36,19.40
2009,09,22,10,37,19.40
2009,09,22,10,38,19.50
2009,09,22,10,39,19.50
2009,09,22,10,40,19.60
2009,09,22,10,41,19.60
2009,09,22,10,42,19.60
2009,09,22,10,43,19.70
2009,09,22,10,44,19.70
2009,09,22,10,45,19.80
2009,09,22,10,46,19.90
2009,09,22,10,47,20.00
2009,09,22,10,48,20.00
2009,09,22,10,49,20.10
2009,09,22,10,50,20.20
2009,09,22,10,51,20.30
2009,09,22,10,52,20.40
2009,09,22,10,53,20.50
2009,09,22,10,54,20.60
2009,09,22,10,55,20.70
2009,09,22,10,56,20.80
2009,09,22,10,57,20.90
2009,09,22,10,58,21.00
2009,09,22,10,59,21.20
2009,09,22,11,00,21.20
2009,09,22,11,01,21.30
2009,09,22,11,02,21.30
2009,09,22,11,03,21.40
2009,09,22,11,04,21.40
2009,09,22,11,05,21.40
2009,09,22,11,06,21.40
2009,09,22,11,07,21.50
2009,09,22,11,08,21.60
2009,09,22,11,09,21.60
2009,09,22,11,10,21.70
2009,09,22,11,11,21.70
2009,09,22,11,12,21.70
2009,09,22,11,13,21.70
2009,09,22,11,14,21.70
2009,09,22,11,15,21.80
2009,09,22,11,16,21.80
2009,09,22,11,17,21.80
2009,09,22,11,18,21.80
2009,09,22,11,19,21.90
2009,09,22,11,20,22.00
2009,09,22,11,21,22.00
2009,09,22,11,22,22.10
2009,09,22,11,23,22.20
2009,09,22,11,24,22.20
2009,09,22,11,25,22.30
2009,09,22,11,26,22.30
2009,09,22,11,27,22.40
2009,09,22,11,28,22.50
2009,09,22,11,29,22.60
2009,09,22,11,30,22.70
2009,09,22,11,31,22.70
2009,09,22,11,32,22.80
2009,09,22,11,33,22.80
2009,09,22,11,34,22.90
2009,09,22,11,35,22.90
2009,09,22,11,36,23.00
2009,09,22,11,37,23.00
2009,09,22,11,38,23.10
2009,09,22,11,39,23.10
2009,09,22,11,40,23.10
2009,09,22,11,41,23.10
2009,09,22,11,42,23.10
2009,09,22,11,43,23.10
2009,09,22,11,44,23.10
2009,09,22,11,45,23.20
2009,09,22,11,46,23.20
2009,09,22,11,47,23.20
2009,09,22,11,48,23.30
2009,09,22,11,49,23.40
2009,09,22,11,50,23.40
2009,09,22,11,51,23.50
2009,09,22,11,52,23.50
2009,09,22,11,53,23.60
2009,09,22,11,54,23.60
2009,09,22,11,55,23.70
2009,09,22,11,56,23.70
2009,09,22,11,57,23.70
2009,09,22,11,58,23.70
2009,09,22,11,59,23.80
2009,09,22,12,00,23.80
2009,09,22,12,01,23.90
2009,09,22,12,02,23.90
2009,09,22,12,03,23.90
2009,09,22,12,04,23.90
2009,09,22,12,05,23.90
2009,09,22,12,06,23.90
2009,09,22,12,07,24.00
2009,09,22,12,08,24.10
2009,09,22,12,09,24.10
2009,09,22,12,10,24.10
2009,09,22,12,11,24.10
2009,09,22,12,12,24.10
2009,09,22,12,13,24.10
2009,09,22,12,14,24.10
2009,09,22,12,15,24.20
2009,09,22,12,16,24.20
2009,09,22,12,17,24.10
2009,09,22,12,18,24.10
2009,09,22,12,19,24.00
2009,09,22,12,20,24.00
2009,09,22,12,21,24.10
2009,09,22,12,22,24.10
2009,09,22,12,23,24.10
2009,09,22,12,24,24.20
2009,09,22,12,25,24.20
2009,09,22,12,26,24.20
2009,09,22,12,27,24.20
2009,09,22,12,28,24.20
2009,09,22,12,29,24.20
2009,09,22,12,30,24.30
2009,09,22,12,31,24.40
2009,09,22,12,32,24.40
2009,09,22,12,33,24.50
2009,09,22,12,34,24.50
2009,09,22,12,35,24.60
2009,09,22,12,36,24.60
2009,09,22,12,37,24.70
2009,09,22,12,38,24.80
2009,09,22,12,39,24.80
2009,09,22,12,40,24.90
2009,09,22,12,41,24.90
2009,09,22,12,42,24.90
2009,09,22,12,43,24.90
2009,09,22,12,44,24.80
2009,09,22,12,45,24.80
2009,09,22,12,46,24.90
2009,09,22,12,47,24.90
2009,09,22,12,48,25.00
2009,09,22,12,49,24.90
2009,09,22,12,50,24.80
2009,09,22,12,51,24.80
2009,09,22,12,52,24.80
2009,09,22,12,53,24.80
2009,09,22,12,54,24.80
2009,09,22,12,55,24.90
2009,09,22,12,56,24.90
2009,09,22,12,57,24.90
2009,09,22,12,58,25.00
2009,09,22,12,59,25.00
2009,09,22,13,00,25.10
2009,09,22,13,01,25.20
2009,09,22,13,02,25.20
2009,09,22,13,03,25.30
2009,09,22,13,04,25.30
2009,09,22,13,05,25.30
2009,09,22,13,06,25.40
2009,09,22,13,07,25.50
2009,09,22,13,08,25.50
2009,09,22,13,09,25.60
2009,09,22,13,10,25.70
2009,09,22,13,11,25.80
2009,09,22,13,12,25.80
2009,09,22,13,13,25.80
2009,09,22,13,14,25.90
2009,09,22,13,15,25.90
2009,09,22,13,16,26.00
2009,09,22,13,17,26.00
2009,09,22,13,18,26.10
2009,09,22,13,19,26.10
2009,09,22,13,20,26.20
2009,09,22,13,21,26.20
2009,09,22,13,22,26.10
2009,09,22,13,23,26.10
2009,09,22,13,24,26.00
2009,09,22,13,25,25.90
2009,09,22,13,26,25.90
2009,09,22,13,27,25.90
2009,09,22,13,28,25.80
2009,09,22,13,29,25.80
2009,09,22,13,30,25.80
2009,09,22,13,31,25.80
2009,09,22,13,32,25.80
2009,09,22,13,33,25.90
2009,09,22,13,34,25.90
2009,09,22,13,35,25.90
2009,09,22,13,36,25.90
2009,09,22,13,37,25.90
2009,09,22,13,38,25.90
2009,09,22,13,39,25.90
2009,09,22,13,40,25.90
2009,09,22,13,41,25.90
2009,09,22,13,42,26.00
2009,09,22,13,43,26.10
2009,09,22,13,44,26.10
2009,09,22,13,45,26.10
2009,09,22,13,46,26.20
2009,09,22,13,47,26.20
2009,09,22,13,48,26.20
2009,09,22,13,49,26.20
2009,09,22,13,50,26.20
2009,09,22,13,51,26.20
2009,09,22,13,52,26.20
2009,09,22,13,53,26.20
2009,09,22,13,54,26.20
2009,09,22,13,55,26.20
2009,09,22,13,56,26.30
2009,09,22,13,57,26.30
2009,09,22,13,58,26.40
2009,09,22,13,59,26.50
2009,09,22,14,00,26.50
2009,09,22,14,01,26.60
2009,09,22,14,02,26.60
2009,09,22,14,03,26.70
2009,09,22,14,04,26.80
2009,09,22,14,05,26.90
2009,09,22,14,06,26.90
2009,09,22,14,07,26.90
2009,09,22,14,08,26.90
2009,09,22,14,09,26.90
2009,09,22,14,10,27.00
2009,09,22,14,11,27.00
2009,09,22,14,12,27.10
2009,09,22,14,13,27.10
2009,09,22,14,14,27.10
2009,09,22,14,15,27.20
2009,09,22,14,16,27.20
2009,09,22,14,17,27.20
2009,09,22,14,18,27.20
2009,09,22,14,19,27.20
2009,09,22,14,20,27.20
2009,09,22,14,21,27.10
2009,09,22,14,22,27.10
2009,09,22,14,23,27.10
2009,09,22,14,24,27.10
2009,09,22,14,25,27.10
2009,09,22,14,26,27.20
2009,09,22,14,27,27.20
2009,09,22,14,28,27.20
2009,09,22,14,29,27.20
2009,09,22,14,30,27.30
2009,09,22,14,31,27.20
2009,09,22,14,32,27.20
2009,09,22,14,33,27.10
2009,09,22,14,34,27.10
2009,09,22,14,35,27.10
2009,09,22,14,36,27.10
2009,09,22,14,37,27.10
2009,09,22,14,38,27.10
2009,09,22,14,39,27.10
2009,09,22,14,40,27.20
2009,09,22,14,41,27.20
2009,09,22,14,42,27.20
2009,09,22,14,43,27.30
2009,09,22,14,44,27.30
2009,09,22,14,45,27.40
2009,09,22,14,46,27.40
2009,09,22,14,47,27.40
2009,09,22,14,48,27.40
2009,09,22,14,49,27.40
2009,09,22,14,50,27.40
2009,09,22,14,51,27.40
2009,09,22,14,52,27.40
2009,09,22,14,53,27.30
2009,09,22,14,54,27.30
2009,09,22,14,55,27.30
2009,09,22,14,56,27.30
2009,09,22,14,57,27.30
2009,09,22,14,58,27.30
2009,09,22,14,59,27.30
2009,09,22,15,00,27.30
2009,09,22,15,01,27.30
2009,09,22,15,02,27.30
2009,09,22,15,03,27.30
2009,09,22,15,04,27.30
2009,09,22,15,05,27.30
2009,09,22,15,06,27.30
2009,09,22,15,07,27.30
2009,09,22,15,08,27.30
2009,09,22,15,09,27.20
2009,09,22,15,10,27.20
2009,09,22,15,11,27.20
2009,09,22,15,12,27.20
2009,09,22,15,13,27.30
2009,09,22,15,14,27.30
2009,09,22,15,15,27.30
2009,09,22,15,16,27.40
2009,09,22,15,17,27.40
2009,09,22,15,18,27.40
2009,09,22,15,19,27.40
2009,09,22,15,20,27.40
2009,09,22,15,21,27.40
2009,09,22,15,22,27.40
2009,09,22,15,23,27.40
2009,09,22,15,24,27.40
2009,09,22,15,25,27.50
2009,09,22,15,26,27.40
2009,09,22,15,27,27.40
2009,09,22,15,28,27.40
2009,09,22,15,29,27.40
2009,09,22,15,30,27.40
2009,09,22,15,31,27.40
2009,09,22,15,32,27.40
2009,09,22,15,33,27.40
2009,09,22,15,34,27.40
2009,09,22,15,35,27.50
2009,09,22,15,36,27.50
2009,09,22,15,37,27.60
2009,09,22,15,38,27.60
2009,09,22,15,39,27.50
2009,09,22,15,40,27.50
2009,09,22,15,41,27.50
2009,09,22,15,42,27.50
2009,09,22,15,43,27.50
2009,09,22,15,44,27.40
2009,09,22,15,45,27.40
2009,09,22,15,46,27.40
2009,09,22,15,47,27.50
2009,09,22,15,48,27.50
2009,09,22,15,49,27.50
2009,09,22,15,50,27.40
2009,09,22,15,51,27.40
2009,09,22,15,52,27.40
2009,09,22,15,53,27.40
2009,09,22,15,54,27.40
2009,09,22,15,55,27.40
2009,09,22,15,56,27.40
2009,09,22,15,57,27.40
2009,09,22,15,58,27.50
2009,09,22,15,59,27.50
2009,09,22,16,00,27.50
2009,09,22,16,01,27.40
2009,09,22,16,02,27.40
2009,09,22,16,03,27.30
2009,09,22,16,04,27.30
2009,09,22,16,05,27.20
2009,09,22,16,06,27.20
2009,09,22,16,07,27.10
2009,09,22,16,08,27.10
2009,09,22,16,09,27.00
2009,09,22,16,10,27.00
2009,09,22,16,11,27.00
2009,09,22,16,12,27.00
2009,09,22,16,13,27.00
2009,09,22,16,14,27.10
2009,09,22,16,15,27.10
2009,09,22,16,16,27.10
2009,09,22,16,17,27.20
2009,09,22,16,18,27.20
2009,09,22,16,19,27.30
2009,09,22,16,20,27.30
2009,09,22,16,21,27.40
2009,09,22,16,22,27.40
2009,09,22,16,23,27.40
2009,09,22,16,24,27.50
2009,09,22,16,25,27.50
2009,09,22,16,26,27.50
2009,09,22,16,27,27.50
2009,09,22,16,28,27.50
2009,09,22,16,29,27.50
2009,09,22,16,30,27.40
2009,09,22,16,31,27.40
2009,09,22,16,32,27.40
2009,09,22,16,33,27.40
2009,09,22,16,34,27.30
2009,09,22,16,35,27.30
2009,09,22,16,36,27.30
2009,09,22,16,37,27.20
2009,09,22,16,38,27.20
2009,09,22,16,39,27.10
2009,09,22,16,40,27.10
2009,09,22,16,41,27.10
2009,09,22,16,42,27.10
2009,09,22,16,43,27.10
2009,09,22,16,44,27.10
2009,09,22,16,45,27.10
2009,09,22,16,46,27.10
2009,09,22,16,47,27.10
2009,09,22,16,48,27.10
2009,09,22,16,49,27.20
2009,09,22,16,50,27.20
2009,09,22,16,51,27.30
2009,09,22,16,52,27.30
2009,09,22,16,53,27.40
2009,09,22,16,54,27.40
2009,09,22,16,55,27.50
2009,09,22,16,56,27.50
2009,09,22,16,57,27.60
2009,09,22,16,58,27.60
2009,09,22,16,59,27.60
2009,09,22,17,00,27.60
2009,09,22,17,01,27.50
2009,09,22,17,02,27.40
2009,09,22,17,03,27.30
2009,09,22,17,04,27.30
2009,09,22,17,05,27.10
2009,09,22,17,06,27.00
2009,09,22,17,07,27.00
2009,09,22,17,08,26.90
2009,09,22,17,09,26.80
2009,09,22,17,10,26.70
2009,09,22,17,11,26.70
2009,09,22,17,12,26.60
2009,09,22,17,13,26.60
2009,09,22,17,14,26.50
2009,09,22,17,15,26.40
2009,09,22,17,16,26.40
2009,09,22,17,17,26.30
2009,09,22,17,18,26.30
2009,09,22,17,19,26.20
2009,09,22,17,20,26.20
2009,09,22,17,21,26.10
2009,09,22,17,22,26.00
2009,09,22,17,23,26.00
2009,09,22,17,24,25.90
2009,09,22,17,25,25.90
2009,09,22,17,26,25.90
2009,09,22,17,27,25.90
2009,09,22,17,28,25.90
2009,09,22,17,29,25.90
2009,09,22,17,30,25.80
2009,09,22,17,31,25.80
2009,09,22,17,32,25.80
2009,09,22,17,33,25.70
2009,09,22,17,34,25.70
2009,09,22,17,35,25.70
2009,09,22,17,36,25.60
2009,09,22,17,37,25.60
2009,09,22,17,38,25.50
2009,09,22,17,39,25.50
2009,09,22,17,40,25.50
2009,09,22,17,41,25.50
2009,09,22,17,42,25.40
2009,09,22,17,43,25.40